Regional Weather Roundup
Issued by NWS Sterling, VA

Home | Current Version | Previous Version | Text Only | Print | Product List | Glossary On
Versions: 1 2 3 4 5 6 7 8 9 10 11 12 13 14 15 16 17 18 19 20 21 22 23 24 25 26 27 28 29 30 31 32 33 34 35 36 37 38 39 40 41 42 43 44 45 46 47 48 49 50
906
ASUS41 KLWX 301211
RWRLWX

REGIONAL WEATHER ROUNDUP
NATIONAL WEATHER SERVICE BALTIMORE MD/WASHINGTON DC
800 AM EDT SUN APR 30 2017

Note: "FAIR" indicates few or no clouds below 12,000 feet
with no significant weather and/or obstructions to visibility.
 TC=TEMPERATURE CELSIUS

 * =Non NWS site. Station does not report precipitation (e.g. rain,
    snow, etc.), thunder, or fog.

DCZ001-MDZ009-015-VAZ040>042-051-053>054-301300-
WASHINGTON METRO

CITY           SKY/WX    TMP DP  RH WIND       PRES   REMARKS
WASHINGTON NAT PTSUNNY   72  69  90 NE8       30.12R
DULLES         CLOUDY    68  63  84 VRB3      30.12R
ANDREWS AFB    PTSUNNY   70  69  97 NE3       30.12R FOG
FT BELVOIR     SUNNY     72  72 100 CALM      30.12R
QUANTICO       MOSUNNY   72  70  93 S8        30.12R
COLLEGE PARK*  CLOUDY    70  63  79 NE3       30.12S
LEESBURG*      CLOUDY    68  64  88 N5        30.14R
MANASSAS*        N/A     69  66  90 VRB5      30.12R

$$

MDZ006>007-011-014-301300-
BALTIMORE METRO

CITY           SKY/WX    TMP DP  RH WIND       PRES   REMARKS
BWI AIRPORT    CLOUDY    69  62  78 NE10      30.13R
MD SCIENCE CTR   N/A     71  59  65 MISG      30.14R
MARTIN STATE   CLOUDY    72  64  78 NE8       30.15S
ANNAPOLIS      CLOUDY    71  68  90 E5        30.12R
FORT MEADE*    CLOUDY    68  61  77 NE3       30.16R

$$

MDZ012-015-019>023-301300-
MARYLAND EASTERN SHORE

CITY           SKY/WX    TMP DP  RH WIND       PRES   REMARKS
OCEAN CITY     PTSUNNY   67  65  93 SE5       30.17R FOG
SALISBURY      PTSUNNY   72  71  97 E6        30.14R FOG
BAY BRIDGE AP* CLOUDY    70  64  83 E8        30.13R
CAMBRIDGE*     SUNNY     73  72  94 S5        30.12S
EASTON*        CLOUDY    72  70  94 E5        30.17R FOG

$$

MDZ017>025-301300-
SOUTHERN MARYLAND

CITY           SKY/WX    TMP DP  RH WIND       PRES   REMARKS
PATUXENT RIVER PTSUNNY   75  73  93 VRB5      30.11S
ST INIGOES     MOSUNNY   74  70  87 S12       30.12R
LEONARDTOWN*   SUNNY     73  68  83 CALM      30.13S

$$

MDZ003>005-301300-
NORTH CENTRAL MARYLAND

CITY           SKY/WX    TMP DP  RH WIND       PRES   REMARKS
FREDERICK*     CLOUDY    70  66  88 N7        30.17R
HAGERSTOWN APT CLOUDY    65  59  81 N8        30.13S
WESTMINSTER*   CLOUDY    66  59  77 E7        30.16R

$$

MDZ501>502-301300-
WESTERN MARYLAND

CITY           SKY/WX    TMP DP  RH WIND       PRES   REMARKS
OAKLAND*       NOT AVBL
CUMBERLAND*    PTSUNNY   66  63  88 CALM      30.17R

$$

VAZ025>031-301300-
SHENANDOAH VALLEY

CITY           SKY/WX    TMP DP  RH WIND       PRES   REMARKS
WINCHESTER*    CLOUDY    63  59  88 N3        30.13R
FRONT ROYAL*   PTSUNNY   64  63  94 NE5       30.13R
LURAY*         SUNNY     68  68 100 NE3       30.12R FOG
NEW MARKET*    SUNNY     66  65  94 CALM      30.12R
STAUNTON*      SUNNY     68  65  89 CALM      30.16R
WAYNESBORO*    SUNNY     70  66  88 CALM      30.15R

$$

WVZ021-048>050-054>055-301300-
EASTERN WEST VIRGINIA PANHANDLE

CITY           SKY/WX    TMP DP  RH WIND       PRES   REMARKS
MARTINSBURG    CLOUDY    65  58  78 NE6       30.13R
PETERSBURG*    SUNNY     62  61  98 CALM      30.14S FOG

$$

VAZ036>039-050-301300-
CENTRAL FOOTHILLS

CITY           SKY/WX    TMP DP  RH WIND       PRES   REMARKS
CHARLOTTESVILL   N/A     73  70  90 S8        30.12R
CULPEPER*      SUNNY     73  71  91 SW5       30.12R
ORANGE*        SUNNY     72  68  88 SW9       30.12R
GORDONSVILLE*  MOSUNNY   71  69  95 SW7       30.12R
WARRENTON*     SUNNY     75  68  78 CALM      30.11R

$$

VAZ055>057-301300-
NORTH AND CENTRAL PIEDMONT

CITY           SKY/WX    TMP DP  RH WIND       PRES   REMARKS
FREDERICKSBRG* MOSUNNY   74  70  88 SW6       30.11R
STAFFORD*      MOSUNNY   72  71  95 SW3       30.16R

$$

NCZ024-NYZ072-PAZ021-071-VAZ022-071-301300-
OTHER REGIONAL OBSERVATIONS

CITY           SKY/WX    TMP DP  RH WIND       PRES   REMARKS
NEW YORK CITY  CLOUDY    59  38  45 NE7       30.26R
PHILADELPHIA   CLOUDY    65  50  58 NE10      30.18R
PITTSBURGH     CLOUDY    60  59  96 SE3       30.05R
ROANOKE        MOSUNNY   71  68  90 CALM      30.17R
RICHMOND       MOSUNNY   73  71  93 SW13      30.15R
RALEIGH        PTSUNNY   72  68  87 S9        30.20R

$$

ANZ530>537-301300-
MARINE OBSERVATIONS

STATION/POSITION TIME  TEMP    WIND        PRES
                       AIR SEA DIR/SP/G
                 (UTC) (F)     (DEG/KT/KT) (MB)
THOMAS PT LIGHT  1200   69 60   90/ 10/ 11   N/A
BALT KEY BRIDGE  1148   69      80/  9/ 10 1020.3R
COVE POINT       1148   72     210/  8/ 10 1020.4R
LEWISETTA        1148   74 70  220/  6/  7 1019.8R
SOLOMONS ISLAND  1136   73 63  180/  5/  7   N/A
PINEY POINT      1148          200/  6/  7   N/A

$$





USA.gov is the U.S. government's official web portal to all federal, state and local government web resources and services.